Theta_e
293 293 292 292 292 292 291 290 290 289 288 288 287 286 286 285 284 284 284 284 284 283 283 283 283 282 282 282 282 281 281 281 280 280 280 280 279 278 279 279 279 278 277
291 291 291 291 291 290 290 290 289 288 287 287 286 285 284 284 284 283 283 283 283 283 283 282 282 282 281 282 281 280 280 279 279 279 279 278 278 278 278 279 278 277 276
291 290 290 290 290 290 289 289 288 288 287 286 285 284 284 283 283 283 282 282 282 282 282 282 282 281 281 281 280 279 278 279 278 278 278 278 278 278 278 277 277 276 275
290 290 290 290 290 289 289 288 288 287 287 286 285 284 284 283 282 282 282 282 281 282 281 281 281 280 280 279 279 279 278 278 278 278 278 278 278 278 277 277 276 275 275
290 290 290 290 289 289 288 288 287 287 286 286 285 284 283 283 282 282 282 281 280 280 280 280 280 280 279 279 279 279 278 278 278 278 278 278 278 277 276 276 275 275 275
290 290 290 289 289 288 288 287 287 287 286 285 285 284 284 283 282 281 281 281 280 280 279 279 279 279 279 278 279 278 279 279 278 277 278 278 277 276 275 275 275 276 274
290 290 289 289 288 288 288 287 287 286 286 285 285 284 284 283 282 281 281 281 280 280 279 279 279 279 278 278 277 278 278 278 278 277 277 276 276 275 275 275 273 273 272
290 290 289 289 288 288 287 287 287 286 286 286 285 284 283 283 282 281 281 281 280 279 279 278 278 278 278 277 278 278 278 277 277 277 276 275 275 275 273 272 271 271 270
290 289 290 289 288 288 288 287 287 286 286 285 285 284 283 283 282 282 281 280 280 279 278 278 278 278 277 278 278 278 277 277 276 275 275 274 273 271 270 270 269 269 268
290 290 290 289 289 288 288 287 287 286 285 284 284 284 284 284 282 282 281 280 279 278 278 277 277 277 278 278 278 278 277 276 275 273 272 270 269 268 268 268 268 268 267
290 290 290 289 289 289 288 287 286 285 285 284 284 284 284 283 283 281 280 280 279 278 277 277 277 276 277 278 279 277 276 275 273 271 268 268 267 266 266 266 266 265 265
290 290 290 290 289 288 287 286 286 285 284 284 284 284 284 283 282 281 280 280 279 278 278 277 276 276 277 278 277 275 274 272 269 267 266 266 265 265 265 264 263 263 263
290 290 290 290 289 288 287 286 285 285 284 284 283 282 283 283 282 281 280 279 279 278 277 276 277 277 276 275 273 272 270 268 267 266 265 265 264 263 262 262 262 261 261
291 291 290 289 289 287 287 287 286 285 284 282 282 282 283 283 282 280 279 278 277 277 276 276 275 275 274 273 271 269 267 266 265 265 264 263 262 261 261 261 260 260 259
292 291 290 290 289 288 287 286 285 285 284 283 283 283 282 281 281 280 278 277 277 277 276 276 275 274 272 270 268 267 266 265 264 263 262 261 260 260 260 259 259 258 258
292 291 291 289 288 287 286 286 285 285 284 283 282 282 281 280 279 278 278 278 278 278 277 275 274 273 270 268 266 266 265 264 263 262 261 260 259 259 258 258 258 257 257
292 291 289 288 288 287 286 286 285 285 284 282 282 282 282 281 279 279 279 279 278 277 276 274 273 271 268 266 265 265 264 263 261 261 260 259 258 258 258 257 257 257 257
290 290 289 289 288 287 286 285 284 283 283 282 281 281 280 280 280 280 279 277 276 275 274 272 270 268 267 265 265 264 263 262 261 260 259 259 258 258 257 257 256 256 256
289 289 289 288 287 286 285 284 283 282 282 281 280 279 279 278 278 278 276 275 274 273 271 269 268 267 266 265 264 263 262 261 260 259 259 259 259 258 257 257 256 256 256
289 288 288 287 286 285 284 283 282 281 280 279 278 278 277 276 275 275 274 273 272 270 269 268 267 266 265 264 263 262 261 261 260 260 260 260 260 259 257 257 256 256 256
289 288 287 286 285 284 282 281 281 280 279 278 278 277 276 275 275 274 273 272 271 269 268 267 266 266 265 264 262 261 261 261 261 261 260 260 260 259 259 258 256 256 255
289 288 286 285 284 283 282 281 279 279 278 277 277 276 275 274 274 273 272 271 269 268 267 266 266 265 264 263 262 261 261 261 262 261 261 261 261 261 259 257 257 256 256
287 286 285 284 283 281 280 280 278 278 277 276 275 275 274 274 274 273 272 270 268 267 266 266 266 264 263 262 262 261 261 262 262 262 262 262 262 261 260 258 257 256 256
287 286 284 283 282 281 280 279 278 277 276 275 274 274 273 273 273 272 271 268 267 267 267 266 264 264 263 263 263 263 262 262 262 263 263 263 263 262 261 260 258 258 257
286 284 283 282 281 281 280 278 277 276 275 274 274 273 273 272 272 271 269 268 267 267 266 265 264 263 263 263 263 263 263 263 263 264 264 263 264 264 264 261 261 260 259
285 283 283 281 280 280 279 278 277 276 275 274 274 273 273 272 271 269 268 267 267 266 266 264 263 263 264 264 263 263 264 264 265 266 264 265 265 266 265 263 263 261 261
Wind_Speed
28 27 26 24 21 19 17 15 13 11 10 8 7 6 4 3 2 2 2 3 4 5 6 8 10 11 12 12 14 14 15 15 16 23 23 24 28 31 27 28 26 30 28
25 25 24 22 20 19 16 13 11 10 9 7 6 5 4 4 4 4 5 6 6 7 8 10 11 13 14 14 14 14 14 19 19 20 23 25 27 28 27 26 29 25 29
24 23 22 20 18 16 14 12 11 9 8 7 6 5 5 6 6 6 7 8 8 9 10 11 13 14 14 13 15 18 18 14 19 20 24 24 24 24 25 25 25 29 28
24 22 20 19 16 15 13 12 11 9 7 7 6 6 7 8 8 8 10 11 11 12 12 12 14 13 13 15 18 17 15 20 20 19 22 23 23 22 20 24 28 28 31
24 21 19 16 15 13 13 12 10 8 7 6 7 8 9 10 10 11 11 12 13 14 14 13 12 13 15 16 14 17 19 17 18 17 21 23 20 23 23 26 30 33 30
23 20 18 17 16 15 13 11 9 9 8 8 9 10 11 12 11 12 13 14 14 14 16 16 15 15 15 14 14 15 16 18 19 19 22 17 23 21 23 30 30 22 18
22 21 20 18 18 15 12 11 11 10 9 10 12 12 13 13 12 12 13 15 15 16 16 16 17 16 15 16 17 16 16 17 18 22 21 20 21 27 28 26 26 29 29
24 22 21 20 17 15 14 13 12 11 12 13 13 13 15 14 12 12 13 17 17 17 17 16 16 17 16 15 17 18 18 21 19 18 21 26 26 27 28 29 30 30 29
25 24 22 19 17 15 15 14 13 14 15 15 15 14 15 14 13 14 13 17 20 20 17 14 14 15 16 14 16 20 21 17 19 22 21 22 26 26 24 26 22 22 25
28 24 20 18 16 15 14 15 15 17 17 16 16 16 16 17 15 15 15 18 22 20 16 14 14 13 14 14 17 19 15 21 23 22 32 32 29 27 19 16 19 20 21
23 20 19 16 15 15 16 17 18 17 18 18 19 19 18 20 19 17 16 17 19 19 18 17 18 13 14 15 17 17 20 24 26 27 31 30 27 20 17 15 17 21 23
21 20 17 16 16 17 18 18 18 18 19 20 20 24 22 21 18 17 16 14 15 17 19 19 18 14 14 15 18 19 19 18 24 26 27 23 20 19 19 23 23 20 20
21 18 17 17 17 18 19 18 19 18 22 23 22 26 25 20 17 14 12 12 12 15 18 16 13 14 14 16 18 15 17 20 22 24 21 20 20 23 29 27 21 23 23
19 19 19 19 18 18 18 20 22 23 25 25 24 25 25 23 18 15 14 14 14 13 13 12 14 13 15 16 18 17 18 19 19 21 21 22 25 28 24 22 24 25 26
20 19 19 18 19 19 21 22 24 24 23 23 25 25 23 22 17 14 14 14 11 10 12 15 15 17 18 18 18 18 19 19 20 19 22 26 26 23 21 23 23 25 20
18 20 19 20 20 20 20 21 21 22 21 20 20 20 19 16 11 9 12 11 12 12 15 15 17 18 18 19 19 21 21 22 21 22 24 24 23 23 23 27 26 22 21
19 18 17 18 19 19 19 20 24 19 17 17 19 18 16 15 14 12 13 14 12 13 16 18 18 17 18 17 18 19 21 22 21 21 22 24 25 25 27 25 24 21 22
17 17 18 18 18 19 20 21 20 22 22 18 14 15 15 15 15 14 15 12 16 16 18 17 16 16 17 17 18 19 21 21 21 22 22 24 24 25 27 25 23 22 22
18 18 17 18 19 20 19 20 20 20 21 20 17 14 14 14 12 13 11 16 18 17 15 14 14 14 14 16 17 18 19 21 21 22 23 23 24 24 27 27 25 27 23
17 17 17 18 19 19 19 19 19 19 20 20 19 18 16 15 17 18 17 17 16 14 13 12 11 13 14 16 17 18 19 20 20 21 23 23 24 25 27 28 26 23 26
17 17 18 19 19 18 18 18 18 19 20 20 19 15 15 17 16 15 14 14 13 12 11 11 11 12 15 16 16 17 18 19 20 21 23 24 26 28 29 29 29 29 27
19 18 18 19 17 17 18 18 18 18 19 19 17 15 12 16 13 12 13 12 11 12 11 11 11 13 13 14 15 16 17 19 20 21 23 26 28 30 32 33 32 30 28
20 20 20 20 19 18 18 18 18 18 19 18 16 16 17 19 17 15 14 12 11 11 11 11 12 12 12 13 14 15 18 19 20 21 24 27 31 33 34 35 33 31 28
21 21 21 20 19 19 19 19 19 19 18 17 18 17 17 17 16 15 13 12 11 11 11 11 11 12 12 12 12 14 16 18 19 20 23 28 33 35 36 38 36 34 34
21 21 21 22 21 21 21 20 20 19 19 19 19 18 17 16 15 14 12 11 11 11 11 11 11 11 12 13 14 15 15 16 19 21 24 26 31 36 40 41 42 39 37
22 22 22 22 22 22 22 21 20 20 20 20 19 17 17 15 13 12 11 11 11 11 11 10 11 11 12 13 14 14 15 16 20 22 26 30 35 40 43 43 43 37 36
Wind_Direction
166 162 158 156 150 152 155 149 150 151 153 158 154 164 173 178 199 219 254 273 303 312 320 317 316 318 311 307 309 304 296 293 286 299 306 312 313 319 321 323 317 316 313
164 162 159 152 153 154 152 152 158 157 163 166 172 184 198 221 236 247 257 265 290 302 307 303 305 310 303 299 300 299 304 305 305 307 311 312 313 320 316 312 314 313 313
166 166 160 154 157 157 157 162 166 168 174 179 191 204 220 234 246 258 270 275 279 283 293 293 299 298 299 299 308 311 315 315 309 306 303 307 305 309 311 312 313 313 310
170 170 163 162 165 168 165 173 176 180 187 197 209 225 237 246 255 261 263 269 280 287 288 286 293 301 305 309 311 315 310 312 311 300 300 303 306 311 314 315 312 311 309
175 172 170 169 174 177 182 184 185 191 204 218 231 242 248 253 259 262 264 274 284 288 292 297 302 307 306 306 300 304 308 304 305 304 306 306 316 319 317 314 307 308 306
177 175 178 181 184 191 192 193 199 210 219 229 242 249 252 257 257 256 270 278 282 289 300 306 304 302 305 299 292 292 294 300 309 307 306 309 314 314 314 311 305 314 313
180 184 187 191 196 197 200 207 213 220 231 243 249 254 260 263 263 264 261 272 281 293 298 301 301 300 299 295 297 296 298 302 302 306 306 308 313 313 310 316 316 309 305
187 190 193 199 202 203 210 218 224 232 242 250 257 261 265 268 268 259 256 273 284 290 293 289 286 295 301 302 303 304 303 306 305 306 305 307 308 315 317 313 309 305 304
192 197 200 204 207 212 221 227 234 241 247 252 259 262 265 272 268 268 266 274 279 283 289 293 292 294 302 301 302 305 304 301 308 309 306 307 310 311 313 313 312 314 311
199 201 204 208 217 225 233 238 243 247 252 256 261 266 271 275 275 275 263 261 270 280 291 294 293 292 297 299 301 301 306 318 322 311 314 318 324 329 322 316 316 314 315
200 202 208 215 226 234 240 243 246 250 254 256 264 272 275 276 278 273 261 258 267 277 281 286 295 300 298 302 304 314 318 315 312 314 318 326 331 329 325 324 315 310 305
201 206 212 223 231 235 241 245 247 250 254 263 271 276 274 276 280 279 270 258 258 263 275 285 291 296 300 305 306 311 314 310 313 323 328 328 326 326 323 318 316 309 299
205 211 220 228 236 240 243 247 249 254 258 263 265 271 282 291 287 279 260 254 256 258 266 280 288 294 298 299 307 314 310 319 326 330 328 321 320 317 319 324 320 316 312
210 219 225 232 239 244 250 254 256 254 254 256 262 272 283 288 285 279 261 256 256 261 273 281 289 292 296 303 307 316 322 326 329 327 321 318 319 323 324 324 321 323 318
216 222 229 240 248 252 253 256 257 262 264 270 274 277 279 282 285 272 258 259 271 285 287 281 288 297 310 315 318 320 325 329 332 331 324 324 324 322 319 324 323 321 312
220 230 238 244 247 252 260 267 268 274 276 272 268 268 278 277 274 248 239 249 259 270 272 279 293 304 308 315 319 323 328 332 333 327 325 326 322 320 320 325 326 318 309
232 243 247 251 254 260 266 269 275 279 270 262 257 256 255 260 263 258 252 250 253 268 267 279 288 297 305 311 318 322 323 324 323 324 326 327 325 324 327 322 316 311 307
245 250 251 256 259 261 263 265 269 273 281 280 265 254 256 254 254 252 242 251 254 253 266 278 287 297 306 310 316 319 319 321 324 326 326 325 325 324 321 313 309 304 304
240 245 249 253 256 261 265 266 267 269 272 279 281 266 257 250 242 238 242 246 255 264 270 275 288 295 303 310 315 315 315 317 320 323 324 324 325 324 316 312 307 304 298
239 245 248 255 261 264 264 266 267 267 268 268 267 266 259 248 245 239 240 249 259 270 275 284 294 301 310 312 310 310 311 315 320 324 324 325 323 319 312 311 305 297 299
242 245 249 254 259 265 266 266 270 267 266 265 264 265 258 251 253 250 248 250 258 267 280 288 296 306 307 305 306 307 308 314 318 322 323 321 319 315 314 311 305 301 294
246 250 252 255 260 261 268 271 266 262 261 260 259 252 230 242 249 250 250 255 265 276 281 287 299 301 300 300 302 303 308 314 320 323 320 317 315 314 313 311 305 300 296
245 248 251 253 256 263 264 265 262 259 258 256 253 245 233 235 246 251 255 259 267 272 275 287 295 297 296 298 299 304 309 315 319 318 315 312 311 310 309 307 303 297 294
242 245 248 251 255 259 263 265 263 259 255 253 247 242 240 243 245 248 251 256 261 265 276 288 293 297 300 301 306 310 313 316 315 313 311 308 307 309 308 304 300 296 293
239 243 246 249 253 258 262 263 262 255 251 247 244 241 242 241 239 238 243 250 255 265 278 287 290 296 302 310 316 318 318 315 313 312 312 312 310 309 307 303 300 297 295
243 246 250 253 255 258 260 261 259 251 247 245 243 241 240 239 237 237 242 246 254 268 282 285 291 299 307 315 318 318 316 317 320 322 320 314 309 307 303 297 297 293 292